Location: Ostrava
(49.8330°N, 18.2830°E)
Time: 09:07:37
(UTC+01:00)

Cosmos 2219 Rocket - Visible Passes

Search period start: 14 February 2016 00:00
Search period end: 24 February 2016 00:00
Orbit: 826 x 848 km, 71.0° (Epoch: 13 February)

Date Brightness Start Highest point End Pass type
(mag) Time Alt. Az. Time Alt. Az. Time Alt. Az.
14 Feb 4.7 19:16:21 10° NW 19:18:02 11° NNW 19:19:42 10° N visible
15 Feb 4.7 18:59:41 10° NW 19:01:36 12° NNW 19:03:31 10° N visible
16 Feb 4.7 18:43:03 10° NW 18:45:10 12° NNW 18:47:17 10° N visible
17 Feb 4.6 18:26:26 10° NW 18:28:45 12° NNW 18:31:03 10° N visible
18 Feb 4.6 18:09:49 10° NW 18:12:19 13° NNW 18:14:50 10° N visible
18 Feb 4.9 21:42:45 10° N 21:43:01 11° N 21:43:01 11° N visible
19 Feb 4.6 17:53:14 10° NW 17:55:54 13° NNW 17:58:35 10° N visible
19 Feb 4.8 21:26:30 10° N 21:27:06 11° N 21:27:06 11° N visible
20 Feb 4.7 21:10:14 10° N 21:11:12 12° N 21:11:12 12° N visible
21 Feb 4.6 20:53:59 10° N 20:55:18 12° N 20:55:18 12° N visible
21 Feb 5.1 22:36:56 10° NNW 22:37:01 10° NNW 22:37:01 10° NNW visible
22 Feb 4.5 20:37:44 10° N 20:39:24 13° NNE 20:39:24 13° NNE visible
22 Feb 5.0 22:20:38 10° NNW 22:21:07 12° NNW 22:21:07 12° NNW visible
23 Feb 4.5 20:21:29 10° N 20:23:30 13° NNE 20:23:30 13° NNE visible
23 Feb 4.8 22:04:19 10° NNW 22:05:14 14° NNW 22:05:14 14° NNW visible
